RYR95LW EDDK-EGCC

Flight info

Callsign RYR95LW
Flight time N/A
Altitude 34000
Route NVO2K NVO Y868 SOGRI L608 DENUT L610 LAM UN57 WELIN T420 ELVOS
Aircraft B38M/M-SDE1FGHILORVWXY/HB1

Departure

Time 2026-05-08 06:27
Airport Cologne Bonn Airport (EDDK)

Arrival

Time N/A
Airport Manchester Airport (EGCC)
Time Latitude Longitude Altitude Speed Heading
2026-05-08 06:03 50.88128 7.12045 235 ft 0 kts 216°
2026-05-08 06:20 50.88147 7.12069 235 ft 4 kts 217°
2026-05-08 06:21 50.88165 7.12090 238 ft 4 kts 208°
2026-05-08 06:21 50.88189 7.12098 237 ft 4 kts 165°
2026-05-08 06:21 50.88210 7.12077 235 ft 4 kts 130°
2026-05-08 06:21 50.88216 7.12066 235 ft 1 kts 126°
2026-05-08 06:24 50.88215 7.12067 235 ft 1 kts 126°
2026-05-08 06:24 50.88207 7.12085 237 ft 4 kts 124°
2026-05-08 06:24 50.88191 7.12119 237 ft 2 kts 126°
2026-05-08 06:24 50.88157 7.12195 236 ft 15 kts 126°
2026-05-08 06:25 50.88079 7.12367 237 ft 22 kts 125°
2026-05-08 06:25 50.88007 7.12556 236 ft 19 kts 119°
2026-05-08 06:25 50.87986 7.12619 235 ft 1 kts 114°
2026-05-08 06:25 50.87982 7.12651 235 ft 6 kts 92°
2026-05-08 06:26 50.87998 7.12757 239 ft 14 kts 73°
2026-05-08 06:26 50.88006 7.12934 241 ft 11 kts 98°
2026-05-08 06:26 50.87953 7.13045 241 ft 15 kts 137°
2026-05-08 06:26 50.87802 7.13261 241 ft 58 kts 137°
2026-05-08 06:27 50.87318 7.13968 244 ft 130 kts 137°
2026-05-08 06:27 50.86525 7.15123 464 ft 171 kts 138°
2026-05-08 06:27 50.85586 7.16461 1108 ft 193 kts 139°
2026-05-08 06:27 50.84555 7.17916 2125 ft 197 kts 138°
2026-05-08 06:28 50.83544 7.19291 3013 ft 196 kts 141°